Location: Bilsen
(53.7722°N, 9.8765°E)
Time: 19:14:53
(UTC+00:00)

NOSS 3-1 (A) - Pass Details

Date: 18 February 2020
Orbit: 761 x 1452 km, 63.4° (Epoch: 26 March)

Event Time Altitude Azimuth Distance (km) Brightness Sun altitude
Exits shadow 02:56:37 72° 175° (S) 1,324 3.9 -32.2°
Drops below altitude 10° 03:04:18 10° 142° (SE) 3,446 6.5 -31.2°
Sets 03:07:21 0° 141° (SE) 4,473 7.1 -30.8°
